[[{"header":{"parameterUnit":"m.s-1","parameterCategory":1,"la1":30.2991,"la2":30.254,"lo1":-89.0895,"lo2":-89.0444,"dy":0.0017,"dx":0.0017,"nx":28,"ny":28,"refTime":"2025-06-01T09:00:00:Z","depth":0,"parameterNumber":2,"parameterNumberName":"U-component_of_WINDS"},"data":[0,0,0,0,0,0,0,0,0,0,0,0,0,0,0,0,0,0,0,0,0,0,0,0,0,0,0,0,0,0,0,0,0,0,0,0,0,0,0,0,0,0,0,0,0,0,0,0,0,0,0,0,0,0,0,0,0,0,0.5039,0.5039,0,0.5113,0.5114,0.5115,0.5139,0.5139,0.5138,0.5138,0.5214,0.5217,0.5219,0,0,0,0,0,0,0,0,0,0,0,0,0,0.4915,0.4917,0.5038,0.5039,0.504,0.5113,0.5114,0.5115,0.5139,0.5139,0.5138,0.5138,0.5213,0.5216,0.5219,0,0,0,0,0,0,0,0,0,0,0,0,0,0.4977,0.4918,0.5038,0.5061,0.5064,0.5113,0.5114,0.5116,0.5139,0.5139,0.5138,0.5138,0.5213,0.5216,0.5219,0.5251,0,0,0.523,0.5232,0,0,0,0,0,0,0,0,0.4973,0.4981,0.5057,0.506,0.5063,0.5116,0.5099,0.5161,0.5139,0.5111,0.5138,0.5137,0.5182,0.5188,0.5203,0.5255,0.5258,0.523,0.5233,0.5234,0.5235,0,0,0,0,0,0,0,0.4969,0.4978,0.5068,0.5058,0.5062,0.5067,0.5075,0.5111,0.5148,0.5113,0.5115,0.5123,0.5184,0.52,0.5205,0.5259,0.523,0.5234,0.5236,0.5237,0.5339,0.534,0,0,0,0,0,0,0.4961,0.4975,0.5066,0.507,0.5016,0.507,0.5079,0.51,0.5148,0.5155,0.5124,0.5124,0.5194,0.5201,0.5208,0.5247,0.5234,0.5237,0.5239,0.5339,0.534,0.534,0,0,0,0,0,0,0.4958,0.4969,0.5063,0.5023,0.5035,0.5072,0.5095,0.5101,0.5118,0.5156,0.5163,0.5133,0.5194,0.5203,0.524,0.525,0.5239,0.5242,0.5338,0.5339,0.534,0.5327,0,0,0,0,0,0,0.4955,0.4968,0.4981,0.5023,0.5037,0.5094,0.5096,0.5103,0.5124,0.5125,0.5167,0.5173,0.5194,0.5235,0.5244,0.5255,0.5245,0.5337,0.5339,0.534,0.5327,0.5328,0.5328,0,0,0,0,0,0.495,0.4974,0.4981,0.4992,0.5054,0.5095,0.5103,0.5126,0.5124,0.5137,0.5162,0.5172,0.5248,0.5238,0.5248,0.5261,0.5337,0.5338,0.534,0.5327,0.5327,0.5328,0,0,0,0,0,0,0.4932,0.498,0.4989,0.5027,0.5057,0.5098,0.5116,0.5127,0.5157,0.5157,0.5185,0.5194,0.5228,0.5249,0.5237,0.5294,0.5293,0.5296,0.5279,0.5281,0.5281,0.5275,0.5248,0,0,0,0,0,0.4933,0.4962,0.5002,0.5032,0.5047,0.5078,0.5097,0.5112,0.5144,0.5156,0.5184,0.5213,0.5244,0.5263,0.5294,0.533,0.5339,0.5344,0.5344,0.5345,0.5347,0.5367,0.5369,0.5345,0.5345,0.5345,0,0,0.4934,0.4964,0.4981,0.5029,0.5054,0.5083,0.5089,0.5119,0.5141,0.5161,0.5197,0.5218,0.5253,0.529,0.5307,0.5308,0.5356,0.5346,0.5346,0.5349,0.5368,0.5371,0.5373,0.5346,0.5345,0.5345,0,0,0.4951,0.4977,0.5005,0.5029,0.5066,0.5087,0.5093,0.5134,0.5148,0.5185,0.5201,0.5226,0.5279,0.5303,0.5322,0.5347,0.5357,0.5356,0.5359,0.5378,0.538,0.5381,0.5389,0.5392,0.5358,0.5358,0.5358,0,0.4948,0.4993,0.5017,0.5047,0.5067,0.5087,0.5114,0.5137,0.5182,0.5195,0.5195,0.526,0.5285,0.5327,0.5333,0.5348,0.5356,0.5351,0.5377,0.5379,0.5381,0.5389,0.5392,0.5358,0.5358,0.5358,0.5358,0,0.4986,0.5017,0.5034,0.5077,0.51,0.5128,0.5156,0.5176,0.5189,0.521,0.5247,0.5278,0.5314,0.5325,0.5339,0.5368,0.5367,0.5372,0.5371,0.5383,0.5391,0.5394,0.5357,0.5357,0.5357,0.5357,0,0,0.4994,0.505,0.5056,0.5075,0.5117,0.5141,0.5169,0.5205,0.5221,0.5251,0.5275,0.5318,0.5322,0.5344,0.536,0.5377,0.5393,0.5379,0.538,0.538,0.5427,0.5423,0.5426,0.54,0.5401,0.5402,0.5424,0,0.5016,0.5069,0.5091,0.5133,0.5161,0.518,0.5204,0.5232,0.5252,0.5278,0.53,0.533,0.5334,0.5347,0.5364,0.5387,0.5403,0.5386,0.5422,0.5423,0.5413,0.543,0.5426,0.5446,0.5427,0.5428,0.5428,0,0.5049,0.5079,0.5123,0.5161,0.5173,0.5195,0.5229,0.5254,0.5286,0.5299,0.5322,0.5338,0.5368,0.5365,0.5406,0.5395,0.5411,0.5425,0.5426,0.543,0.5426,0.5434,0.5453,0.5455,0.5433,0.5433,0.5432,0,0.5049,0.51,0.5133,0.5149,0.5194,0.5209,0.5228,0.526,0.5279,0.5309,0.5321,0.5354,0.5371,0.5396,0.5419,0.5415,0.5458,0.5458,0.5469,0.5469,0.5477,0.5476,0.5498,0.5489,0.5488,0.5488,0.5488,0,0.507,0.5097,0.5134,0.5154,0.5184,0.5209,0.5238,0.5259,0.5286,0.531,0.5328,0.535,0.538,0.5406,0.5424,0.5455,0.5463,0.5474,0.5479,0.5472,0.5471,0.5483,0.5482,0.5489,0.5489,0.5489,0.5489,0,0.5075,0.5102,0.5139,0.5178,0.5189,0.5209,0.5242,0.5262,0.5282,0.5313,0.5321,0.5353,0.5384,0.541,0.5451,0.5463,0.5495,0.5501,0.5484,0.5487,0.5496,0.5495,0.5526,0.5532,0.5519,0.5519,0.5519,0,0.5087,0.5108,0.5149,0.5167,0.5186,0.5214,0.5234,0.5259,0.5279,0.5316,0.5332,0.5364,0.5391,0.544,0.5466,0.5498,0.5504,0.5513,0.5508,0.5501,0.5503,0.5501,0.5503,0.5513,0.5513,0.5513,0.5513,0,0.5105,0.5117,0.5145,0.5177,0.52,0.5227,0.5254,0.5267,0.5298,0.5319,0.5351,0.5372,0.5414,0.5445,0.5479,0.5499,0.551,0.5514,0.5518,0.5511,0.5501,0.5506,0.5485,0.5513,0.5513,0.5513,0.5513,0.5513,0.5113,0.5132,0.5164,0.5194,0.5217,0.5242,0.5263,0.5285,0.5313,0.5348,0.5362,0.5394,0.5425,0.5471,0.5491,0.5516,0.5518,0.5524,0.5525,0.5526,0.5525,0.5497,0.5522,0.5522,0.5522,0.5523,0.5523,0,0.5131,0.5152,0.518,0.5217,0.5241,0.525,0.5281,0.53,0.5328,0.5356,0.5382,0.5418,0.5449,0.5478,0.5509,0.5524,0.553,0.5532,0.553,0.5535,0.5522,0.5515,0.5526,0.5526,0.5526,0.5526,0.5526,0.5526,0.5143,0.5175,0.519,0.5234,0.5255,0.5287,0.5303,0.5326,0.5348,0.5388,0.5413,0.5432,0.5459,0.5493,0.5521,0.5529,0.554,0.5539,0.5548,0.5536,0.5536,0.5535,0.5528,0.5542,0.5542,0.5558,0.5559,0.5559]},{"header":{"parameterUnit":"m.s-1","parameterCategory":1,"la1":30.2991,"la2":30.254,"lo1":-89.0895,"lo2":-89.0444,"dy":0.0017,"dx":0.0017,"nx":28,"ny":28,"refTime":"2025-06-01T09:00:00:Z","depth":0,"parameterNumber":3,"parameterNumberName":"V-component_of_WINDS"},"data":[0,0,0,0,0,0,0,0,0,0,0,0,0,0,0,0,0,0,0,0,0,0,0,0,0,0,0,0,0,0,0,0,0,0,0,0,0,0,0,0,0,0,0,0,0,0,0,0,0,0,0,0,0,0,0,0,0,0,4.636,4.6359,0,4.6251,4.625,4.6249,4.6143,4.6141,4.614,4.6139,4.6022,4.602,4.6019,0,0,0,0,0,0,0,0,0,0,0,0,0,4.647,4.6469,4.636,4.6359,4.6357,4.6251,4.625,4.6248,4.6143,4.6141,4.614,4.6138,4.6023,4.6021,4.6018,0,0,0,0,0,0,0,0,0,0,0,0,0,4.6398,4.6469,4.636,4.6292,4.6285,4.6252,4.625,4.6248,4.6143,4.6141,4.6139,4.6137,4.6024,4.6021,4.6018,4.6042,0,0,4.601,4.6009,0,0,0,0,0,0,0,0,4.6402,4.6394,4.6303,4.6297,4.6288,4.6208,4.6246,4.6179,4.6144,4.6197,4.6139,4.6136,4.6086,4.6078,4.6061,4.6037,4.6032,4.601,4.6008,4.6007,4.6006,0,0,0,0,0,0,0,4.6408,4.6398,4.6317,4.6302,4.6293,4.6265,4.6252,4.6233,4.6154,4.6192,4.6184,4.6173,4.6081,4.6064,4.6058,4.603,4.601,4.6007,4.6006,4.6004,4.6017,4.6019,0,0,0,0,0,0,4.6424,4.6403,4.632,4.6313,4.6342,4.6265,4.6251,4.6236,4.6154,4.6139,4.6175,4.6168,4.607,4.6061,4.6053,4.6074,4.6007,4.6004,4.6003,4.6015,4.6017,4.6019,0,0,0,0,0,0,4.6427,4.6417,4.6324,4.6356,4.6342,4.6265,4.6249,4.6235,4.6218,4.6141,4.6126,4.6173,4.6068,4.6057,4.6046,4.6068,4.6003,4.6,4.6012,4.6015,4.6018,4.6117,0,0,0,0,0,0,4.643,4.6419,4.6429,4.6357,4.6341,4.632,4.6251,4.6234,4.6214,4.6205,4.6135,4.6121,4.6066,4.605,4.6043,4.6063,4.5998,4.601,4.6014,4.6017,4.6111,4.6123,4.6133,0,0,0,0,0,4.6434,4.646,4.643,4.642,4.6352,4.6322,4.6312,4.625,4.6217,4.6225,4.6175,4.6123,4.6068,4.605,4.6041,4.6061,4.6008,4.6013,4.6017,4.6106,4.6121,4.6133,0,0,0,0,0,0,4.6534,4.6449,4.6415,4.6418,4.6379,4.6304,4.6312,4.6267,4.6234,4.6227,4.6148,4.6133,4.613,4.6094,4.6076,4.6079,4.6031,4.6034,4.6102,4.6115,4.6125,4.6133,4.5996,0,0,0,0,0,4.6558,4.6542,4.6468,4.6478,4.646,4.639,4.6375,4.633,4.6285,4.6267,4.6216,4.6172,4.6145,4.6128,4.6098,4.6106,4.6088,4.6115,4.6126,4.6136,4.6138,4.6137,4.6147,4.6034,4.6034,4.6034,0,0,4.6604,4.6555,4.655,4.6497,4.6461,4.6445,4.6376,4.6363,4.6349,4.6264,4.6249,4.6211,4.6157,4.6155,4.6151,4.6125,4.6166,4.6141,4.6149,4.6146,4.6143,4.6153,4.6163,4.6037,4.6036,4.6036,0,0,4.6679,4.6643,4.6646,4.6611,4.6558,4.6511,4.6512,4.6445,4.6416,4.6401,4.6336,4.6318,4.6273,4.6237,4.6212,4.6275,4.6225,4.6267,4.6323,4.6322,4.6331,4.6339,4.6358,4.6367,4.627,4.6271,4.6271,0,4.6743,4.6718,4.6653,4.6643,4.662,4.6545,4.6546,4.6515,4.6455,4.644,4.6412,4.6353,4.6311,4.6298,4.6314,4.6297,4.6294,4.6273,4.6336,4.6343,4.6348,4.6366,4.6374,4.6276,4.6275,4.6275,4.6274,0,4.6797,4.6781,4.679,4.6734,4.6713,4.6709,4.6642,4.6628,4.6585,4.6541,4.6525,4.6473,4.6431,4.6425,4.6383,4.6405,4.639,4.6351,4.63,4.6366,4.6381,4.6387,4.6283,4.6282,4.628,4.6279,0,0,4.6931,4.684,4.6844,4.6818,4.6753,4.6738,4.673,4.669,4.6679,4.6639,4.6629,4.6592,4.6555,4.6527,4.648,4.6481,4.653,4.644,4.6437,4.6456,4.6548,4.6577,4.6586,4.6498,4.6499,4.65,4.6552,0,4.6993,4.6976,4.6917,4.6916,4.6899,4.6827,4.6819,4.6778,4.6736,4.6714,4.6667,4.6642,4.6595,4.6578,4.6575,4.6525,4.6547,4.652,4.6484,4.6483,4.6497,4.6594,4.6625,4.6676,4.6558,4.6559,4.6559,0,4.7063,4.703,4.7028,4.6963,4.6953,4.6948,4.6906,4.6887,4.6837,4.6807,4.6777,4.6725,4.671,4.6665,4.6642,4.6625,4.6607,4.658,4.658,4.6572,4.6524,4.6586,4.6692,4.6698,4.6569,4.6568,4.6567,0,4.7158,4.7113,4.7105,4.7084,4.7009,4.7007,4.6975,4.6924,4.6904,4.6867,4.6852,4.6814,4.6792,4.6762,4.67,4.6674,4.6683,4.6634,4.6654,4.6656,4.6657,4.6657,4.6759,4.6651,4.6651,4.665,4.665,0,4.7232,4.7233,4.7146,4.7141,4.7139,4.7072,4.7071,4.7032,4.6987,4.6972,4.6907,4.6894,4.6814,4.6791,4.6742,4.6729,4.672,4.6693,4.6679,4.6697,4.67,4.6682,4.6676,4.6652,4.6652,4.6652,4.6651,0,4.7336,4.7279,4.7265,4.7196,4.7178,4.718,4.7119,4.711,4.7065,4.7046,4.7038,4.6967,4.6936,4.6872,4.6823,4.679,4.6787,4.6765,4.6804,4.6795,4.6818,4.6816,4.6909,4.6917,4.6807,4.6809,4.6809,0,4.7386,4.7385,4.7316,4.7302,4.7273,4.7251,4.723,4.7164,4.7144,4.7088,4.7085,4.705,4.7017,4.6971,4.6913,4.6875,4.685,4.6885,4.6843,4.686,4.6847,4.6846,4.6845,4.6893,4.6895,4.6896,4.6897,0,4.748,4.7452,4.7425,4.7388,4.7365,4.7332,4.7296,4.7288,4.7212,4.7193,4.7161,4.7137,4.7087,4.7051,4.7005,4.6969,4.692,4.6911,4.6913,4.693,4.6952,4.6938,4.6826,4.6909,4.6908,4.6907,4.6906,4.6906,4.7556,4.7551,4.7502,4.7474,4.744,4.7407,4.7395,4.735,4.7323,4.7278,4.724,4.7212,4.7161,4.7093,4.7061,4.7036,4.7012,4.7016,4.7016,4.7017,4.7024,4.6959,4.7027,4.7027,4.7027,4.7026,4.7026,0,4.7644,4.7609,4.7584,4.7536,4.7513,4.7472,4.7429,4.7412,4.7389,4.7346,4.7316,4.7279,4.7244,4.7185,4.7144,4.7135,4.7111,4.7126,4.7125,4.7117,4.7049,4.705,4.7146,4.7146,4.7146,4.7146,4.7146,4.7146,4.7687,4.7676,4.7642,4.7613,4.7577,4.7549,4.7528,4.7497,4.7463,4.7425,4.7396,4.7359,4.7308,4.7264,4.7229,4.7212,4.7198,4.7221,4.7196,4.7133,4.7122,4.7111,4.7111,4.7219,4.7219,4.7265,4.7266,4.7266]}]]